Carmi, IL

7:57 AM CDT on June 24, 2017 (GMT -0500)
Carmi Municipal

Weather History for KCUL - November, 2013

Change the Weather History Date:

Saturday, November 2, 2013

  Actual Average (KEHR) Record (KEHR)
Temperature  
Mean Temperature 46 °F -  
Max Temperature 57 °F 63 °F 85 °F (1933)
Min Temperature 37 °F 46 °F 21 °F (2014)
Degree Days  
Heating Degree Days 18    
Moisture  
Dew Point 42 °F    
Average Humidity 84    
Maximum Humidity 97    
Minimum Humidity 62    
Precipitation  
Precipitation 0.03 in - - ()
Sea Level Pressure  
Sea Level Pressure 29.99 in    
Wind  
Wind Speed 6 mph (West)    
Max Wind Speed 21 mph    
Max Gust Speed 25 mph    
Visibility 10 miles    
Events Rain , Thunderstorm    
Averages and records for this station are not official NWS values.
T = Trace of Precipitation, MM = Missing Value Source: NWS Daily Summary

Daily Weather History Graph

Daily Weather History Graph

Search for Another Location

Airport or City:

Trip Planner

Search our weather history database for the weather conditions in past years. The results will help you decide how hot, cold, wet, or windy it might be!

Date:

Astronomy

Nov. 02, 2013 Rise Set
Actual Time 7:19 AM CDT 5:51 PM CDT
Civil Twilight 6:52 AM CDT 6:19 PM CDT
Nautical Twilight 6:21 AM CDT 6:50 PM CDT
Astronomical Twilight 5:50 AM CDT 7:21 PM CDT
Moon 6:17 AM CDT (11/2) 5:22 PM CDT (11/2)
Length of Visible Light 11h 27m
Length of Day
10h 32m
Waning Crescent, 1% of the Moon is Illuminated
Nov 2
Waning Crescent
Nov 3
New
Nov 9
First Quarter
Nov 17
Full
Nov 25
Last Quarter

Hourly Weather History & Observations

Time (CDT) Temp. Windchill Dew Point Humidity Pressure Visibility Wind Dir Wind Speed Gust Speed Precip Events Conditions
12:15 AM 44.2 °F 42.7 °F 42.8 °F 95% 29.84 in 10.0 mi West 3.5 mph - N/A   Clear
12:35 AM 43.7 °F 41.1 °F 42.6 °F 96% 29.84 in 10.0 mi West 4.6 mph - N/A   Scattered Clouds
12:55 AM 43.0 °F - 41.7 °F 95% 29.84 in 10.0 mi Calm Calm - N/A   Scattered Clouds
1:15 AM 43.9 °F 41.3 °F 42.8 °F 96% 29.84 in 10.0 mi SW 4.6 mph - N/A   Mostly Cloudy
1:35 AM 45.5 °F 43.2 °F 44.1 °F 95% 29.84 in 10.0 mi WSW 4.6 mph - N/A   Mostly Cloudy
1:55 AM 43.7 °F 42.1 °F 42.4 °F 95% 29.84 in 10.0 mi WSW 3.5 mph - N/A   Scattered Clouds
2:15 AM 43.7 °F 41.1 °F 42.3 °F 95% 29.85 in 10.0 mi WSW 4.6 mph - N/A   Scattered Clouds
2:35 AM 43.7 °F 41.1 °F 42.1 °F 94% 29.85 in 10.0 mi WSW 4.6 mph - 0.01 in   Clear
2:55 AM 43.0 °F 40.3 °F 41.2 °F 93% 29.85 in 10.0 mi West 4.6 mph - 0.01 in   Clear
3:15 AM 43.2 °F 40.5 °F 41.4 °F 93% 29.85 in 10.0 mi WSW 4.6 mph - N/A   Clear
3:35 AM 43.7 °F 39.7 °F 41.7 °F 93% 29.85 in 10.0 mi WSW 6.9 mph - N/A   Clear
3:55 AM 43.2 °F 39.0 °F 41.2 °F 93% 29.86 in 10.0 mi WSW 6.9 mph - N/A   Clear
4:15 AM 43.9 °F 41.3 °F 41.9 °F 93% 29.86 in 10.0 mi WSW 4.6 mph - N/A   Clear
4:35 AM 43.9 °F 40.5 °F 41.4 °F 91% 29.86 in 10.0 mi WSW 5.8 mph - N/A   Scattered Clouds
4:55 AM 43.9 °F 40.5 °F 41.5 °F 91% 29.87 in 10.0 mi WSW 5.8 mph - N/A   Scattered Clouds
5:15 AM 43.7 °F 41.1 °F 41.2 °F 91% 29.87 in 10.0 mi West 4.6 mph - N/A   Scattered Clouds
5:35 AM 43.3 °F 40.7 °F 41.4 °F 93% 29.87 in 10.0 mi WSW 4.6 mph - N/A   Scattered Clouds
5:55 AM 42.8 °F 39.3 °F 41.0 °F 93% 29.87 in 10.0 mi WSW 5.8 mph - N/A   Clear
6:15 AM 41.9 °F 39.0 °F 40.3 °F 94% 29.87 in 10.0 mi West 4.6 mph - N/A   Clear
6:35 AM 42.4 °F 38.1 °F 41.0 °F 95% 29.88 in 10.0 mi WSW 6.9 mph - N/A   Clear
6:55 AM 43.5 °F 39.4 °F 41.7 °F 93% 29.90 in 10.0 mi WSW 6.9 mph - N/A   Clear
7:15 AM 44.8 °F 41.0 °F 42.4 °F 91% 29.90 in 10.0 mi WSW 6.9 mph - N/A   Clear
7:35 AM 43.9 °F 39.9 °F 41.5 °F 91% 29.90 in 10.0 mi West 6.9 mph - N/A   Clear
7:55 AM 45.0 °F 41.2 °F 42.8 °F 92% 29.92 in 10.0 mi West 6.9 mph - N/A   Mostly Cloudy
8:15 AM 46.8 °F - 43.5 °F 88% 29.93 in 10.0 mi West 9.2 mph - N/A   Overcast
8:35 AM 47.5 °F - 43.7 °F 87% 29.94 in 10.0 mi West 10.4 mph - N/A Rain Light Rain
8:55 AM 47.7 °F - 43.9 °F 87% 29.95 in 7.0 mi WNW 11.5 mph 20.7 mph 0.01 in Rain , Thunderstorm Rain
9:15 AM 47.3 °F - 44.8 °F 91% 29.96 in 10.0 mi NW 10.4 mph - N/A Rain Light Rain
9:35 AM 48.7 °F - 45.5 °F 89% 29.96 in 10.0 mi NNW 8.1 mph - N/A   Scattered Clouds
9:55 AM 51.1 °F - 46.0 °F 83% 29.96 in 10.0 mi WNW 8.1 mph - N/A   Clear
10:15 AM 51.4 °F - 45.7 °F 81% 29.97 in 10.0 mi West 10.4 mph - N/A   Clear
10:35 AM 53.2 °F - 46.6 °F 78% 29.98 in 10.0 mi West 9.2 mph - N/A   Mostly Cloudy
10:55 AM 52.3 °F - 46.0 °F 79% 29.99 in 10.0 mi West 11.5 mph - N/A   Mostly Cloudy
12:15 PM 55.8 °F - 46.2 °F 70% 30.00 in 10.0 mi West 11.5 mph - N/A   Mostly Cloudy
12:35 PM 55.4 °F - 45.9 °F 70% 30.00 in 10.0 mi West 10.4 mph - N/A   Mostly Cloudy
12:55 PM 54.9 °F - 45.7 °F 71% 30.00 in 10.0 mi WNW 10.4 mph - N/A   Overcast
1:15 PM 55.9 °F - 45.9 °F 69% 30.00 in 10.0 mi West 10.4 mph - N/A   Overcast
1:35 PM 55.4 °F - 45.3 °F 69% 30.00 in 10.0 mi West 11.5 mph - N/A   Overcast
1:55 PM 56.7 °F - 44.2 °F 63% 30.00 in 10.0 mi WNW 13.8 mph - N/A   Mostly Cloudy
2:15 PM 56.7 °F - 44.2 °F 63% 30.00 in 10.0 mi WNW 11.5 mph - N/A   Mostly Cloudy
2:35 PM 54.7 °F - 44.6 °F 69% 30.01 in 10.0 mi WNW 13.8 mph - N/A Rain Light Rain
2:55 PM 52.5 °F - 42.8 °F 70% 30.02 in 10.0 mi NNW 15.0 mph - N/A Rain Light Rain
3:15 PM 51.8 °F - 44.2 °F 75% 30.02 in 10.0 mi WNW 9.2 mph - 0.01 in   Overcast
3:35 PM 55.8 °F - 43.9 °F 64% 30.03 in 10.0 mi NW 12.7 mph 21.9 mph 0.01 in   Mostly Cloudy
3:55 PM 54.1 °F - 42.6 °F 65% 30.04 in 10.0 mi NW 16.1 mph 24.2 mph 0.01 in   Scattered Clouds
4:15 PM 55.0 °F - 42.1 °F 62% 30.05 in 10.0 mi NW 20.7 mph 25.3 mph N/A   Scattered Clouds
4:35 PM 53.1 °F - 42.1 °F 66% 30.06 in 10.0 mi NW 15.0 mph - N/A   Scattered Clouds
4:55 PM 51.8 °F - 40.1 °F 64% 30.06 in 10.0 mi WNW 16.1 mph 24.2 mph N/A   Scattered Clouds
5:15 PM 51.8 °F - 39.7 °F 63% 30.07 in 10.0 mi NW 17.3 mph - N/A   Clear
5:35 PM 50.9 °F - 39.4 °F 65% 30.08 in 10.0 mi WNW 9.2 mph - N/A   Clear
5:55 PM 49.6 °F - 38.7 °F 66% 30.09 in 10.0 mi WNW 8.1 mph - N/A   Clear
6:15 PM 48.2 °F - 38.5 °F 69% 30.10 in 10.0 mi WNW 8.1 mph - N/A   Clear
6:35 PM 45.9 °F 43.6 °F 38.7 °F 76% 30.10 in 10.0 mi NW 4.6 mph - N/A   Clear
6:55 PM 44.8 °F 43.3 °F 38.8 °F 80% 30.11 in 10.0 mi WNW 3.5 mph - N/A   Clear
7:15 PM 43.9 °F 41.3 °F 38.7 °F 82% 30.13 in 10.0 mi West 4.6 mph - N/A   Clear
7:35 PM 45.9 °F 44.6 °F 39.2 °F 78% 30.13 in 10.0 mi WNW 3.5 mph - N/A   Mostly Cloudy
7:55 PM 43.0 °F 40.3 °F 38.5 °F 84% 30.14 in 10.0 mi West 4.6 mph - N/A   Scattered Clouds
8:15 PM 41.9 °F 40.0 °F 38.8 °F 89% 30.14 in 10.0 mi West 3.5 mph - N/A   Scattered Clouds
8:35 PM 41.7 °F - 39.0 °F 90% 30.14 in 10.0 mi Calm Calm - N/A   Clear
8:55 PM 41.4 °F - 39.0 °F 91% 30.15 in 10.0 mi Calm Calm - N/A   Clear
9:15 PM 40.1 °F - 38.3 °F 93% 30.16 in 10.0 mi Calm Calm - N/A   Clear
9:35 PM 41.0 °F - 39.6 °F 95% 30.16 in 5.0 mi Calm Calm - N/A   Scattered Clouds
9:55 PM 40.1 °F 38.0 °F 38.7 °F 95% 30.18 in 7.0 mi WSW 3.5 mph - N/A   Scattered Clouds
10:15 PM 40.1 °F - 39.2 °F 97% 30.18 in 7.0 mi Calm Calm - N/A   Scattered Clouds
10:35 PM 39.9 °F - 39.0 °F 97% 30.19 in 5.0 mi Calm Calm - N/A   Clear
10:55 PM 39.6 °F - 38.7 °F 97% 30.18 in 5.0 mi Calm Calm - N/A   Clear
11:15 PM 38.7 °F - 37.8 °F 97% 30.19 in 10.0 mi Calm Calm - N/A   Clear
11:35 PM 37.8 °F - 36.9 °F 97% 30.18 in 7.0 mi Calm Calm - N/A   Clear
11:55 PM 37.8 °F - 37.0 °F 97% 30.18 in 4.0 mi Calm Calm - N/A   Clear